TimeCDT,TemperatureF,Dew PointF,Humidity,Sea Level PressureIn,VisibilityMPH,Wind Direction,Wind SpeedMPH,Gust SpeedMPH,PrecipitationIn,Events,Conditions,WindDirDegrees,DateUTC
12:56 AM,70.9,65.8,84,29.91,10.0,Calm,Calm,-,N/A,,Clear,0,2013-07-21 05:56:00
1:56 AM,70.9,64.9,81,29.91,10.0,North,3.5,-,N/A,,Clear,360,2013-07-21 06:56:00
2:56 AM,68.9,66.9,93,29.90,10.0,South,4.6,-,N/A,,Clear,190,2013-07-21 07:56:00
3:56 AM,68.9,66.9,93,29.90,10.0,SW,3.5,-,N/A,,Clear,220,2013-07-21 08:56:00
4:56 AM,70.0,66.9,90,29.90,10.0,North,4.6,-,N/A,,Clear,350,2013-07-21 09:56:00
5:56 AM,65.8,63.9,93,29.91,10.0,East,5.8,-,N/A,,Clear,90,2013-07-21 10:56:00
6:56 AM,66.9,64.9,93,29.93,9.0,ENE,4.6,-,N/A,,Clear,70,2013-07-21 11:56:00
7:56 AM,72.0,68.0,87,29.93,10.0,East,4.6,-,N/A,,Clear,100,2013-07-21 12:56:00
8:56 AM,77.0,70.0,79,29.93,10.0,SSE,8.1,-,N/A,,Clear,160,2013-07-21 13:56:00
9:56 AM,75.9,68.9,79,29.93,10.0,SSE,8.1,-,N/A,,Clear,160,2013-07-21 14:56:00
10:56 AM,77.0,70.9,81,29.94,10.0,South,8.1,-,N/A,,Clear,170,2013-07-21 15:56:00
11:56 AM,75.9,70.9,84,29.94,10.0,SSE,5.8,-,N/A,,Clear,150,2013-07-21 16:56:00
12:56 PM,77.0,72.0,84,29.94,10.0,SSE,6.9,-,N/A,,Clear,160,2013-07-21 17:56:00
1:56 PM,77.9,72.0,82,29.92,10.0,SE,8.1,-,N/A,,Clear,140,2013-07-21 18:56:00
2:56 PM,77.9,72.9,84,29.92,8.0,SSE,6.9,-,N/A,,Clear,160,2013-07-21 19:56:00
3:56 PM,79.0,72.9,81,29.89,5.0,South,12.7,-,N/A,,Haze,170,2013-07-21 20:56:00
4:56 PM,79.0,70.9,76,29.88,9.0,South,8.1,-,N/A,,Partly Cloudy,190,2013-07-21 21:56:00
5:56 PM,77.9,70.9,79,29.86,9.0,South,9.2,-,N/A,,Clear,190,2013-07-21 22:56:00
6:56 PM,77.0,70.9,81,29.86,10.0,SSW,5.8,-,N/A,,Clear,200,2013-07-21 23:56:00
7:56 PM,75.9,70.9,84,29.87,10.0,SW,3.5,-,N/A,,Partly Cloudy,230,2013-07-22 00:56:00
8:48 PM,75.2,71.6,89,29.92,10.0,Calm,Calm,-,0.00,,Mostly Cloudy,0,2013-07-22 01:48:00
8:56 PM,75.9,70.9,84,29.87,8.0,Calm,Calm,-,0.00,Rain,Light Rain,0,2013-07-22 01:56:00
9:56 PM,73.9,72.0,93,29.87,5.0,East,3.5,-,0.00,Rain,Light Rain,100,2013-07-22 02:56:00
10:56 PM,72.9,72.0,97,29.87,4.0,SE,5.8,-,0.00,,Mostly Cloudy,130,2013-07-22 03:56:00
11:09 PM,73.4,71.6,94,29.90,5.0,ESE,4.6,-,0.01,Rain,Light Rain,110,2013-07-22 04:09:00
11:43 PM,73.4,71.6,94,29.90,5.0,Calm,Calm,-,0.01,Rain,Light Rain,0,2013-07-22 04:43:00
11:56 PM,72.9,72.0,97,29.86,4.0,East,3.5,-,0.01,Rain,Light Rain,90,2013-07-22 04:56:00